ORB663L CYHZ-KTMB

Flight info

Callsign ORB663L
Flight time N/A
Altitude 43000
Route SENVI Q846 ALLEX DCT SHANK DCT ORCHA Q167 RIFLE Q439 RADDS DCT NTU DCT NCA DCT DUUNK Y313 HOAGG BNFSH3
Aircraft C700/M-SBDGHM1RWXY/LB2

Departure

Time N/A
Airport Halifax / Stanfield International Airport (CYHZ)

Arrival

Time 2026-05-01 08:51
Airport Miami Executive Airport (KTMB)
Time Latitude Longitude Altitude Speed Heading
2026-05-01 07:23 33.56834 -77.74563 43943 ft 441 kts 202°
2026-05-01 07:24 33.47815 -77.76940 43934 ft 440 kts 202°
2026-05-01 07:24 33.41847 -77.78518 43932 ft 438 kts 202°
2026-05-01 07:25 33.35897 -77.80087 43935 ft 443 kts 202°
2026-05-01 07:25 33.29874 -77.81665 43926 ft 442 kts 202°
2026-05-01 07:26 33.23892 -77.83237 43935 ft 438 kts 202°
2026-05-01 07:26 33.17916 -77.84808 43937 ft 442 kts 202°
2026-05-01 07:27 33.11876 -77.86386 43928 ft 443 kts 202°
2026-05-01 07:27 33.05876 -77.87953 43934 ft 439 kts 203°
2026-05-01 07:28 32.99930 -77.89511 43931 ft 442 kts 202°
2026-05-01 07:28 32.93882 -77.91085 43929 ft 445 kts 202°
2026-05-01 07:29 32.87879 -77.92646 43927 ft 441 kts 202°
2026-05-01 07:29 32.81877 -77.94209 43924 ft 440 kts 202°
2026-05-01 07:30 32.75848 -77.95779 43928 ft 446 kts 202°
2026-05-01 07:30 32.69799 -77.97339 43924 ft 442 kts 202°
2026-05-01 07:31 32.63833 -77.98890 43926 ft 441 kts 202°
2026-05-01 07:32 32.48711 -78.02793 43929 ft 441 kts 202°
2026-05-01 07:33 32.39658 -78.05130 43929 ft 447 kts 202°
2026-05-01 07:33 32.30613 -78.07450 43917 ft 443 kts 202°
2026-05-01 07:34 32.21554 -78.09779 43917 ft 445 kts 202°
2026-05-01 07:35 32.15507 -78.11325 43917 ft 447 kts 202°
2026-05-01 07:35 32.09444 -78.12874 43915 ft 444 kts 202°
2026-05-01 07:36 32.03409 -78.14417 43918 ft 443 kts 202°
2026-05-01 07:36 31.97342 -78.15969 43917 ft 449 kts 202°
2026-05-01 07:37 31.88241 -78.18280 43916 ft 445 kts 202°
2026-05-01 07:37 31.82191 -78.19821 43916 ft 444 kts 202°
2026-05-01 07:38 31.76127 -78.21362 43916 ft 448 kts 202°
2026-05-01 07:39 31.66979 -78.23676 43917 ft 446 kts 202°
2026-05-01 07:39 31.57938 -78.25968 43913 ft 445 kts 202°
2026-05-01 07:40 31.51839 -78.27507 43906 ft 449 kts 202°
2026-05-01 07:40 31.45773 -78.29127 43916 ft 440 kts 206°
2026-05-01 07:41 31.39909 -78.31118 43911 ft 438 kts 206°
2026-05-01 07:42 31.31108 -78.34058 43907 ft 443 kts 206°
2026-05-01 07:42 31.25179 -78.36032 43912 ft 441 kts 206°
2026-05-01 07:43 31.19281 -78.38003 43906 ft 439 kts 206°
2026-05-01 07:43 31.10461 -78.40944 43906 ft 443 kts 206°
2026-05-01 07:44 30.98551 -78.44903 43910 ft 445 kts 206°
2026-05-01 07:45 30.92595 -78.46878 43909 ft 445 kts 206°
2026-05-01 07:45 30.86639 -78.48852 43904 ft 445 kts 206°
2026-05-01 07:46 30.80685 -78.50822 43906 ft 445 kts 206°
2026-05-01 07:47 30.71785 -78.53763 43910 ft 444 kts 206°
2026-05-01 07:47 30.65832 -78.55727 43918 ft 444 kts 206°
2026-05-01 07:48 30.56897 -78.58673 43909 ft 449 kts 205°
2026-05-01 07:48 30.50859 -78.60655 43910 ft 450 kts 205°
2026-05-01 07:49 30.42858 -78.63283 43902 ft 446 kts 205°
2026-05-01 07:50 30.36907 -78.65235 43904 ft 448 kts 205°
2026-05-01 07:50 30.26861 -78.68520 43899 ft 450 kts 205°
2026-05-01 07:51 30.21855 -78.70157 43898 ft 448 kts 205°
2026-05-01 07:52 30.12877 -78.73089 43905 ft 450 kts 205°
2026-05-01 07:52 30.06833 -78.75057 43903 ft 452 kts 205°
2026-05-01 07:53 29.97773 -78.78003 43902 ft 447 kts 205°
2026-05-01 07:53 29.91801 -78.79944 43902 ft 450 kts 205°
2026-05-01 07:55 29.76637 -78.84526 43901 ft 458 kts 195°
2026-05-01 07:56 29.60637 -78.86673 43904 ft 460 kts 195°
2026-05-01 07:57 29.51065 -78.87971 43899 ft 466 kts 195°
2026-05-01 07:58 29.38235 -78.89690 43902 ft 461 kts 195°
2026-05-01 07:59 29.25435 -78.91405 43899 ft 467 kts 194°
2026-05-01 08:00 29.06172 -78.93977 43899 ft 463 kts 194°
2026-05-01 08:01 28.93338 -78.95688 43901 ft 467 kts 194°
2026-05-01 08:02 28.83672 -78.96969 43901 ft 465 kts 194°
2026-05-01 08:03 28.74072 -78.98245 43908 ft 464 kts 194°
2026-05-01 08:03 28.64360 -78.99527 43903 ft 466 kts 194°
2026-05-01 08:04 28.51535 -79.01226 43908 ft 468 kts 193°
2026-05-01 08:05 28.41822 -79.02502 43909 ft 465 kts 194°
2026-05-01 08:06 28.32333 -79.04218 43918 ft 455 kts 205°
2026-05-01 08:07 28.20298 -79.08709 43918 ft 454 kts 205°
2026-05-01 08:08 28.11342 -79.12055 43913 ft 454 kts 205°
2026-05-01 08:09 27.99241 -79.16551 43915 ft 455 kts 205°
2026-05-01 08:09 27.96253 -79.17664 43404 ft 461 kts 205°
2026-05-01 08:09 27.93226 -79.18785 42807 ft 452 kts 205°
2026-05-01 08:10 27.87306 -79.20978 41636 ft 447 kts 205°
2026-05-01 08:10 27.81415 -79.23163 40450 ft 447 kts 205°
2026-05-01 08:11 27.75513 -79.25341 39271 ft 443 kts 204°
2026-05-01 08:11 27.69659 -79.27507 38060 ft 440 kts 204°
2026-05-01 08:12 27.63820 -79.29664 36895 ft 447 kts 204°
2026-05-01 08:12 27.60864 -79.30754 36318 ft 448 kts 204°
2026-05-01 08:12 27.54920 -79.32939 35131 ft 450 kts 204°
2026-05-01 08:13 27.51974 -79.34026 34545 ft 451 kts 203°
2026-05-01 08:13 27.48968 -79.35133 33943 ft 453 kts 203°
2026-05-01 08:13 27.42966 -79.37335 32711 ft 453 kts 203°
2026-05-01 08:14 27.39959 -79.38442 32111 ft 456 kts 203°
2026-05-01 08:14 27.36967 -79.39542 31511 ft 457 kts 203°
2026-05-01 08:14 27.33941 -79.40647 30909 ft 455 kts 203°
2026-05-01 08:14 27.30921 -79.41754 30306 ft 457 kts 203°
2026-05-01 08:15 27.27888 -79.42870 29666 ft 460 kts 203°
2026-05-01 08:15 27.21802 -79.45096 28450 ft 466 kts 203°
2026-05-01 08:15 27.18709 -79.46228 27827 ft 468 kts 203°
2026-05-01 08:16 27.15597 -79.47364 27212 ft 470 kts 203°
2026-05-01 08:16 27.12474 -79.48505 26589 ft 473 kts 203°
2026-05-01 08:16 27.09351 -79.49646 25965 ft 471 kts 203°
2026-05-01 08:16 27.06268 -79.50768 25353 ft 469 kts 203°
2026-05-01 08:17 27.03163 -79.51900 24734 ft 466 kts 203°
2026-05-01 08:17 27.00085 -79.53024 24125 ft 463 kts 203°
2026-05-01 08:17 26.97012 -79.54143 23507 ft 461 kts 203°
2026-05-01 08:17 26.93965 -79.55251 22857 ft 457 kts 203°
2026-05-01 08:18 26.90978 -79.56338 22264 ft 456 kts 203°
2026-05-01 08:18 26.84992 -79.58506 21079 ft 437 kts 202°
2026-05-01 08:19 26.79596 -79.60434 19944 ft 380 kts 203°
2026-05-01 08:19 26.77159 -79.61321 19387 ft 356 kts 204°
2026-05-01 08:19 26.74846 -79.62161 18829 ft 345 kts 204°
2026-05-01 08:19 26.72557 -79.62990 18370 ft 344 kts 203°
2026-05-01 08:20 26.70269 -79.63813 18128 ft 349 kts 203°
2026-05-01 08:20 26.67976 -79.64638 17862 ft 349 kts 203°
2026-05-01 08:20 26.65679 -79.65460 17609 ft 345 kts 203°
2026-05-01 08:20 26.63390 -79.66284 17358 ft 344 kts 203°
2026-05-01 08:21 26.61125 -79.67098 17107 ft 344 kts 203°
2026-05-01 08:21 26.58832 -79.67897 16854 ft 341 kts 202°
2026-05-01 08:21 26.56593 -79.68669 16606 ft 335 kts 202°
2026-05-01 08:21 26.54426 -79.69423 16367 ft 315 kts 202°
2026-05-01 08:22 26.52366 -79.70149 16133 ft 306 kts 203°
2026-05-01 08:22 26.50347 -79.70863 15911 ft 307 kts 203°
2026-05-01 08:22 26.48320 -79.71575 15690 ft 308 kts 203°
2026-05-01 08:22 26.46375 -79.72526 15461 ft 301 kts 215°
2026-05-01 08:23 26.44689 -79.73875 15241 ft 295 kts 226°
2026-05-01 08:23 26.43286 -79.75497 15031 ft 291 kts 232°
2026-05-01 08:23 26.41928 -79.77170 14821 ft 290 kts 231°
2026-05-01 08:23 26.40558 -79.78825 14604 ft 289 kts 231°
2026-05-01 08:24 26.39196 -79.80473 14392 ft 288 kts 231°
2026-05-01 08:24 26.37937 -79.82176 14186 ft 285 kts 239°
2026-05-01 08:24 26.36826 -79.84005 13982 ft 284 kts 238°
2026-05-01 08:24 26.35693 -79.85816 13759 ft 283 kts 238°
2026-05-01 08:25 26.34569 -79.87594 13539 ft 282 kts 238°
2026-05-01 08:25 26.33447 -79.89385 13326 ft 281 kts 238°
2026-05-01 08:25 26.32329 -79.91176 13120 ft 280 kts 238°
2026-05-01 08:25 26.31214 -79.92959 12912 ft 279 kts 238°
2026-05-01 08:26 26.30105 -79.94728 12696 ft 279 kts 238°
2026-05-01 08:26 26.28995 -79.96498 12495 ft 276 kts 238°
2026-05-01 08:26 26.27908 -79.98232 12282 ft 269 kts 238°
2026-05-01 08:26 26.26830 -79.99889 12061 ft 267 kts 233°
2026-05-01 08:27 26.25471 -80.01301 11830 ft 270 kts 220°
2026-05-01 08:27 26.23836 -80.02354 11599 ft 273 kts 207°
2026-05-01 08:27 26.22006 -80.02977 11376 ft 277 kts 195°
2026-05-01 08:27 26.20112 -80.03386 11170 ft 276 kts 194°
2026-05-01 08:28 26.18230 -80.03813 10968 ft 276 kts 195°
2026-05-01 08:28 26.16370 -80.04246 10764 ft 276 kts 195°
2026-05-01 08:28 26.14491 -80.04676 10566 ft 275 kts 194°
2026-05-01 08:28 26.12604 -80.05105 10366 ft 275 kts 194°
2026-05-01 08:29 26.10730 -80.05532 10167 ft 274 kts 194°
2026-05-01 08:29 26.08879 -80.05954 9974 ft 272 kts 194°
2026-05-01 08:29 26.07044 -80.06374 9775 ft 271 kts 194°
2026-05-01 08:29 26.05201 -80.06816 9552 ft 270 kts 195°
2026-05-01 08:30 26.03371 -80.07265 9347 ft 269 kts 195°
2026-05-01 08:30 26.01566 -80.07702 9133 ft 268 kts 194°
2026-05-01 08:30 26.00429 -80.07974 8993 ft 267 kts 194°
2026-05-01 08:30 25.98615 -80.08409 8789 ft 266 kts 194°
2026-05-01 08:31 25.96807 -80.08843 8577 ft 265 kts 194°
2026-05-01 08:31 25.95002 -80.09277 8375 ft 265 kts 194°
2026-05-01 08:31 25.93201 -80.09712 8179 ft 264 kts 194°
2026-05-01 08:31 25.91443 -80.10247 7975 ft 258 kts 199°
2026-05-01 08:32 25.89785 -80.10830 7758 ft 241 kts 199°
2026-05-01 08:32 25.88232 -80.11338 7508 ft 229 kts 198°
2026-05-01 08:32 25.86746 -80.11797 7217 ft 218 kts 197°
2026-05-01 08:32 25.85268 -80.12260 6938 ft 222 kts 198°
2026-05-01 08:33 25.83770 -80.12733 6670 ft 224 kts 198°
2026-05-01 08:33 25.82270 -80.13207 6419 ft 224 kts 197°
2026-05-01 08:33 25.80775 -80.13678 6137 ft 223 kts 197°
2026-05-01 08:33 25.79294 -80.14146 5766 ft 215 kts 197°
2026-05-01 08:34 25.77915 -80.14582 5495 ft 199 kts 197°
2026-05-01 08:34 25.76629 -80.14988 5353 ft 188 kts 197°
2026-05-01 08:34 25.75353 -80.15389 5217 ft 191 kts 196°
2026-05-01 08:34 25.74184 -80.16059 5052 ft 192 kts 228°
2026-05-01 08:35 25.73768 -80.17409 4983 ft 191 kts 270°
2026-05-01 08:35 25.73864 -80.18893 4984 ft 194 kts 270°
2026-05-01 08:35 25.73724 -80.20384 4981 ft 195 kts 254°
2026-05-01 08:35 25.73318 -80.21756 4986 ft 194 kts 248°
2026-05-01 08:36 25.72852 -80.23165 4988 ft 195 kts 249°
2026-05-01 08:36 25.72413 -80.24589 4995 ft 195 kts 250°
2026-05-01 08:36 25.71983 -80.26016 4993 ft 194 kts 250°
2026-05-01 08:36 25.71555 -80.27430 4994 ft 193 kts 250°
2026-05-01 08:37 25.71126 -80.28844 4992 ft 193 kts 250°
2026-05-01 08:37 25.70700 -80.30244 4995 ft 194 kts 250°
2026-05-01 08:37 25.70269 -80.31662 4998 ft 194 kts 250°
2026-05-01 08:37 25.69839 -80.33076 4994 ft 194 kts 250°
2026-05-01 08:38 25.69550 -80.34024 5007 ft 194 kts 250°
2026-05-01 08:38 25.69119 -80.35441 5006 ft 195 kts 250°
2026-05-01 08:38 25.68543 -80.37331 5006 ft 195 kts 250°
2026-05-01 08:38 25.68110 -80.38753 5005 ft 195 kts 250°
2026-05-01 08:39 25.67674 -80.40184 5006 ft 195 kts 250°
2026-05-01 08:39 25.67385 -80.41132 4980 ft 196 kts 250°
2026-05-01 08:39 25.66949 -80.42562 4860 ft 196 kts 250°
2026-05-01 08:39 25.66521 -80.43967 4745 ft 193 kts 249°
2026-05-01 08:40 25.65664 -80.46773 4494 ft 192 kts 249°
2026-05-01 08:40 25.65241 -80.48160 4368 ft 192 kts 249°
2026-05-01 08:40 25.64812 -80.49562 4243 ft 192 kts 249°
2026-05-01 08:41 25.64383 -80.50967 4121 ft 193 kts 249°
2026-05-01 08:41 25.63970 -80.52381 3994 ft 194 kts 255°
2026-05-01 08:41 25.63869 -80.53864 3927 ft 190 kts 267°
2026-05-01 08:41 25.63817 -80.55309 3930 ft 191 kts 265°
2026-05-01 08:42 25.63745 -80.56751 3923 ft 181 kts 265°
2026-05-01 08:42 25.63682 -80.58120 3912 ft 176 kts 265°
2026-05-01 08:42 25.63631 -80.59472 3900 ft 177 kts 268°
2026-05-01 08:42 25.64061 -80.60747 3866 ft 181 kts 308°
2026-05-01 08:43 25.64908 -80.61795 3868 ft 182 kts 310°
2026-05-01 08:43 25.65733 -80.62837 3868 ft 182 kts 309°
2026-05-01 08:43 25.66566 -80.63904 3870 ft 183 kts 309°
2026-05-01 08:43 25.67159 -80.65123 3837 ft 179 kts 274°
2026-05-01 08:44 25.66944 -80.66441 3823 ft 174 kts 239°
2026-05-01 08:44 25.66111 -80.67331 3842 ft 159 kts 206°
2026-05-01 08:44 25.65100 -80.67542 3829 ft 143 kts 176°
2026-05-01 08:44 25.64184 -80.67182 3809 ft 141 kts 148°
2026-05-01 08:45 25.63524 -80.66385 3790 ft 146 kts 122°
2026-05-01 08:45 25.63335 -80.65271 3769 ft 150 kts 90°
2026-05-01 08:45 25.63413 -80.64114 3785 ft 150 kts 89°
2026-05-01 08:45 25.63471 -80.62967 3771 ft 151 kts 89°
2026-05-01 08:46 25.63537 -80.61760 3489 ft 157 kts 89°
2026-05-01 08:46 25.63592 -80.60565 3206 ft 151 kts 90°
2026-05-01 08:46 25.63636 -80.59437 2908 ft 144 kts 89°
2026-05-01 08:46 25.63682 -80.58329 2607 ft 145 kts 89°
2026-05-01 08:47 25.63729 -80.57203 2315 ft 146 kts 88°
2026-05-01 08:47 25.63780 -80.56112 2134 ft 140 kts 88°
2026-05-01 08:47 25.63826 -80.55018 1947 ft 147 kts 88°
2026-05-01 08:47 25.63874 -80.53885 1755 ft 147 kts 87°
2026-05-01 08:48 25.63921 -80.52784 1561 ft 138 kts 87°
2026-05-01 08:48 25.63965 -80.51740 1376 ft 134 kts 87°
2026-05-01 08:48 25.64008 -80.50718 1200 ft 132 kts 86°
2026-05-01 08:48 25.64051 -80.49711 1029 ft 132 kts 86°
2026-05-01 08:49 25.64093 -80.48694 859 ft 131 kts 86°
2026-05-01 08:49 25.64136 -80.47683 687 ft 131 kts 86°
2026-05-01 08:49 25.64179 -80.46693 514 ft 129 kts 87°
2026-05-01 08:49 25.64221 -80.45706 339 ft 126 kts 87°
2026-05-01 08:50 25.64262 -80.44754 160 ft 123 kts 87°
2026-05-01 08:50 25.64300 -80.43835 23 ft 111 kts 86°
2026-05-01 08:50 25.64335 -80.43076 12 ft 86 kts 88°
2026-05-01 08:50 25.64359 -80.42506 16 ft 61 kts 87°
2026-05-01 08:51 25.64366 -80.42337 14 ft 15 kts 87°
2026-05-01 08:51 25.64390 -80.42317 14 ft 4 kts 348°
2026-05-01 08:51 25.64424 -80.42319 14 ft 6 kts 357°
2026-05-01 08:51 25.64432 -80.42320 14 ft 0 kts 357°
2026-05-01 08:52 25.64436 -80.42320 14 ft 3 kts 354°
2026-05-01 08:52 25.64473 -80.42358 15 ft 12 kts 279°
2026-05-01 08:52 25.64471 -80.42461 18 ft 14 kts 267°
2026-05-01 08:53 25.64466 -80.42577 17 ft 16 kts 266°
2026-05-01 08:53 25.64461 -80.42695 16 ft 16 kts 269°
2026-05-01 08:53 25.64457 -80.42822 14 ft 16 kts 264°
2026-05-01 08:53 25.64505 -80.42864 14 ft 7 kts
2026-05-01 08:54 25.64518 -80.42823 15 ft 7 kts 87°
2026-05-01 08:54 25.64520 -80.42797 15 ft 1 kts 70°
2026-05-01 08:54 25.64524 -80.42794 15 ft 3 kts 38°
2026-05-01 08:54 25.64539 -80.42793 15 ft 0 kts 359°
2026-05-01 08:55 25.64541 -80.42793 15 ft 1 kts 359°
2026-05-01 08:55 25.64546 -80.42793 15 ft 0 kts 359°